Location: Caltech
(34.1382°N, 118.1253°W)
Time: 06:17:34
(UTC-07:00)

COSMOS 2428 - Visible Passes

Search period start: 31 August 2015 00:00
Search period end: 10 September 2015 00:00
Orbit: 845 x 857 km, 71.0° (Epoch: 31 August)

Date Brightness Start Highest point End Pass type
(mag) Time Alt. Az. Time Alt. Az. Time Alt. Az.
31 Aug 5.2 02:04:21 16° NNE 02:04:21 16° NNE 02:05:28 10° NNE visible
31 Aug 4.8 03:46:21 15° NNW 03:46:21 15° NNW 03:48:13 10° NNW visible
01 Sep 5.4 01:52:25 14° NNE 01:52:25 14° NNE 01:53:08 10° NNE visible
01 Sep 4.9 03:34:25 14° NNW 03:34:25 14° NNW 03:35:53 10° NNW visible
02 Sep 5.5 01:40:28 12° NNE 01:40:28 12° NNE 01:40:47 10° NNE visible
02 Sep 5.1 03:22:28 13° NNW 03:22:28 13° NNW 03:23:33 10° NNW visible
03 Sep 5.2 03:10:29 12° NNW 03:10:29 12° NNW 03:11:13 10° NNW visible
04 Sep 5.3 02:58:29 11° NNW 02:58:29 11° NNW 02:58:53 10° NNW visible
05 Sep 5.4 02:46:28 10° NNW 02:46:28 10° NNW 02:46:33 10° NNW visible
